Location: ??
(35.5052°N, 139.7262°E)
Time: 12:31:30
(UTC+00:00)

Cosmos 2237 Rocket - Visible Passes

Search period start: 22 October 2021 00:00
Search period end: 01 November 2021 00:00
Orbit: 833 x 851 km, 71.0° (Epoch: 21 October)

Date Brightness Start Highest point End Pass type
(mag) Time Alt. Az. Time Alt. Az. Time Alt. Az.
24 Oct 3.8 20:31:12 10° N 20:36:25 36° ENE 20:41:34 10° SE visible
25 Oct 3.9 20:16:21 10° N 20:21:31 35° ENE 20:26:37 10° SE visible
26 Oct 3.9 20:01:31 10° N 20:06:37 33° ENE 20:11:39 10° SE visible
27 Oct 4.0 19:46:42 10° N 19:51:43 31° ENE 19:56:41 10° ESE visible
28 Oct 4.3 10:34:09 10° SSW 10:35:25 17° SSW 10:35:25 17° SSW visible
28 Oct 4.0 19:31:53 10° N 19:36:49 30° ENE 19:41:43 10° ESE visible
29 Oct 4.1 08:40:23 10° ESE 08:40:31 10° ESE 08:40:31 10° ESE visible
29 Oct 3.3 10:19:17 10° SSW 10:22:27 35° SSW 10:22:27 35° SSW visible
29 Oct 4.1 19:17:03 10° N 19:21:55 28° ENE 19:26:43 10° ESE visible
30 Oct 4.0 08:26:35 10° E 08:26:54 10° E 08:27:12 10° E visible
30 Oct 2.2 10:04:23 10° SSW 10:09:29 72° SW 10:09:29 72° SW visible
30 Oct 4.1 19:02:15 10° N 19:07:01 27° ENE 19:11:44 10° ESE visible
31 Oct 2.1 09:49:30 10° SSW 09:55:12 89° WNW 09:56:26 57° NNE visible
31 Oct 5.1 11:37:50 10° WNW 11:38:22 11° WNW 11:38:22 11° WNW visible
31 Oct 4.2 18:47:27 10° N 18:52:07 26° ENE 18:56:44 10° ESE visible
31 Oct 2.7 20:31:01 10° NW 20:36:14 39° WSW 20:41:25 10° S visible
